Location: Chmeln�
(49.6483°N, 14.9871°E)
Time: 06:05:02
(UTC+00:00)

Cosmos 2279 Rocket - Pass Details

Date: 18 September 2020
Orbit: 964 x 979 km, 82.9° (Epoch: 27 October)

Event Time Altitude Azimuth Distance (km) Brightness Sun altitude
Exits shadow 20:20:49 80° 205° (SSW) 999 3.9 -29.3°
Maximum altitude 20:21:12 87° 279° (W) 987 3.9 -29.3°
Drops below altitude 10° 20:27:31 10° 9° (N) 2,743 6.8 -30.0°
Sets 20:30:02 0° 10° (N) 3,696 7.5 -30.3°
